| time (UTC) | temp F | wind direction | speed MPH | gust MPH | rain 1hr in | rain 24hr in | rain mn in | humidity % | barometer mb |
| 20260831233021 | 89 | 172 | 8.0 | 15.0 | 0.00 | 0.00 | 0.00 | 29 | 999.1 |
| 20260831231510 | 89 | 165 | 9.0 | 14.0 | 0.00 | 0.00 | 0.00 | 30 | 999.1 |
| 20260831230009 | 90 | 168 | 7.0 | 13.0 | 0.00 | 0.00 | 0.00 | 30 | 999.2 |
| 20260831224510 | 89 | 168 | 7.0 | 17.0 | 0.00 | 0.00 | 0.00 | 31 | 999.3 |
| 20260831223006 | 90 | 158 | 5.0 | 17.0 | 0.00 | 0.00 | 0.00 | 29 | 999.3 |
| 20260831221505 | 90 | 96 | 7.0 | 12.0 | 0.00 | 0.00 | 0.00 | 29 | 999.6 |
| 20260831220006 | 89 | 128 | 8.0 | 13.0 | 0.00 | 0.00 | 0.00 | 32 | 999.7 |
| 20260831214503 | 88 | 136 | 6.0 | 13.0 | 0.00 | 0.00 | 0.00 | 32 | 1000.0 |
| 20260831213100 | 90 | 136 | 7.0 | 14.0 | 0.00 | 0.00 | 0.00 | 32 | 1000.2 |
| 20260831211610 | 89 | 155 | 8.0 | 16.0 | 0.00 | 0.00 | 0.00 | 32 | 1000.6 |
| 20260831204559 | 90 | 112 | 8.0 | 12.0 | 0.00 | 0.00 | 0.00 | 32 | 1001.1 |
| 20260831203054 | 88 | 181 | 7.0 | 12.0 | 0.00 | 0.00 | 0.00 | 33 | 1001.5 |
| 20260831201556 | 87 | 180 | 2.0 | 9.0 | 0.00 | 0.00 | 0.00 | 33 | 1001.7 |
| 20260831200055 | 87 | 177 | 4.0 | 13.0 | 0.00 | 0.00 | 0.00 | 34 | 1001.9 |
| 20260831194628 | 89 | 177 | 5.0 | 17.0 | 0.00 | 0.00 | 0.00 | 32 | 1002.0 |
| 20260831193053 | 89 | 224 | 8.0 | 15.0 | 0.00 | 0.00 | 0.00 | 32 | 1002.1 |
| 20260831191551 | 88 | 248 | 9.0 | 15.0 | 0.00 | 0.00 | 0.00 | 34 | 1002.2 |
| 20260831190049 | 87 | 244 | 6.0 | 12.0 | 0.00 | 0.00 | 0.00 | 35 | 1002.2 |
| 20260831184610 | 88 | 229 | 3.0 | 9.0 | 0.00 | 0.00 | 0.00 | 34 | 1002.4 |
| 20260831183059 | 87 | 190 | 8.0 | 18.0 | 0.00 | 0.00 | 0.00 | 36 | 1002.6 |
| 20260831181548 | 86 | 252 | 8.0 | 15.0 | 0.00 | 0.00 | 0.00 | 36 | 1002.9 |
| 20260831180044 | 85 | 196 | 8.0 | 18.0 | 0.00 | 0.00 | 0.00 | 38 | 1003.0 |
| 20260831174538 | 84 | 160 | 8.0 | 13.0 | 0.00 | 0.00 | 0.00 | 39 | 1003.3 |
| 20260831173051 | 84 | 194 | 7.0 | 16.0 | 0.00 | 0.00 | 0.00 | 40 | 1003.3 |
| 20260831171535 | 83 | 146 | 9.0 | 18.0 | 0.00 | 0.00 | 0.00 | 41 | 1003.3 |
| 20260831170034 | 83 | 228 | 8.0 | 15.0 | 0.00 | 0.00 | 0.00 | 43 | 1003.3 |
| 20260831164536 | 83 | 195 | 9.0 | 17.0 | 0.00 | 0.00 | 0.00 | 42 | 1003.5 |
| 20260831163030 | 82 | 204 | 9.0 | 16.0 | 0.00 | 0.00 | 0.00 | 43 | 1003.4 |
| 20260831161528 | 80 | 202 | 9.0 | 16.0 | 0.00 | 0.00 | 0.00 | 46 | 1003.5 |
| 20260831160029 | 80 | 205 | 12.0 | 19.0 | 0.00 | 0.00 | 0.00 | 46 | 1003.4 |
| 20260831154522 | 79 | 192 | 11.0 | 16.0 | 0.00 | 0.00 | 0.00 | 48 | 1003.2 |
| 20260831153021 | 79 | 215 | 12.0 | 19.0 | 0.00 | 0.00 | 0.00 | 47 | 1003.2 |
| 20260831151520 | 78 | 201 | 12.0 | 21.0 | 0.00 | 0.00 | 0.00 | 48 | 1003.0 |
| 20260831150016 | 77 | 184 | 13.0 | 23.0 | 0.00 | 0.00 | 0.00 | 50 | 1002.8 |
| 20260831144522 | 77 | 173 | 12.0 | 21.0 | 0.00 | 0.00 | 0.00 | 51 | 1002.6 |
| 20260831143011 | 76 | 172 | 11.0 | 19.0 | 0.00 | 0.00 | 0.00 | 52 | 1002.5 |
| 20260831141507 | 75 | 208 | 13.0 | 22.0 | 0.00 | 0.00 | 0.00 | 55 | 1002.5 |
| 20260831140006 | 74 | 147 | 14.0 | 21.0 | 0.00 | 0.00 | 0.00 | 55 | 1002.4 |
| 20260831134506 | 74 | 173 | 10.0 | 17.0 | 0.00 | 0.00 | 0.00 | 55 | 1002.4 |
| 20260831133004 | 73 | 167 | 12.0 | 20.0 | 0.00 | 0.00 | 0.00 | 57 | 1002.3 |
| 20260831131503 | 72 | 172 | 12.0 | 19.0 | 0.00 | 0.00 | 0.00 | 59 | 1002.2 |
| 20260831130112 | 71 | 169 | 11.0 | 16.0 | 0.00 | 0.00 | 0.00 | 60 | 1001.9 |
| 20260831124559 | 71 | 155 | 12.0 | 17.0 | 0.00 | 0.00 | 0.00 | 60 | 1001.9 |
| 20260831123056 | 72 | 196 | 13.0 | 19.0 | 0.00 | 0.00 | 0.00 | 60 | 1001.7 |
| 20260831121554 | 71 | 170 | 13.0 | 21.0 | 0.00 | 0.00 | 0.00 | 60 | 1001.7 |
| 20260831120053 | 70 | 190 | 7.0 | 15.0 | 0.00 | 0.00 | 0.00 | 62 | 1001.7 |
| 20260831114550 | 70 | 207 | 1.0 | 7.0 | 0.00 | 0.00 | 0.00 | 62 | 1001.8 |
| 20260831113050 | 71 | 219 | 5.0 | 10.0 | 0.00 | 0.00 | 0.00 | 60 | 1001.6 |
| 20260831111606 | 71 | 154 | 7.0 | 13.0 | 0.00 | 0.00 | 0.00 | 60 | 1001.3 |
| 20260831110117 | 71 | 136 | 7.0 | 12.0 | 0.00 | 0.00 | 0.00 | 60 | 1001.4 |
| 20260831104546 | 71 | 128 | 6.0 | 13.0 | 0.00 | 0.00 | 0.00 | 61 | 1001.4 |
| 20260831103044 | 72 | 145 | 6.0 | 14.0 | 0.00 | 0.00 | 0.00 | 60 | 1001.3 |
| 20260831101545 | 72 | 157 | 8.0 | 19.0 | 0.00 | 0.00 | 0.00 | 60 | 1001.2 |
| 20260831100043 | 72 | 115 | 8.0 | 21.0 | 0.00 | 0.00 | 0.00 | 60 | 1001.1 |
| 20260831094542 | 73 | 159 | 9.0 | 16.0 | 0.00 | 0.00 | 0.00 | 58 | 1001.0 |
| 20260831093041 | 73 | 143 | 6.0 | 17.0 | 0.00 | 0.00 | 0.00 | 58 | 1000.8 |
| 20260831091548 | 73 | 158 | 8.0 | 17.0 | 0.00 | 0.00 | 0.00 | 57 | 1000.7 |
| 20260831090040 | 73 | 155 | 11.0 | 20.0 | 0.00 | 0.00 | 0.00 | 57 | 1000.6 |
| 20260831084549 | 73 | 159 | 12.0 | 22.0 | 0.00 | 0.00 | 0.00 | 58 | 1000.6 |
| 20260831083046 | 73 | 146 | 9.0 | 20.0 | 0.00 | 0.00 | 0.00 | 58 | 1000.7 |
| 20260831081544 | 72 | 162 | 12.0 | 21.0 | 0.00 | 0.00 | 0.00 | 60 | 1000.8 |
| 20260831080034 | 72 | 167 | 13.0 | 22.0 | 0.00 | 0.00 | 0.00 | 60 | 1000.8 |
| 20260831074541 | 72 | 157 | 13.0 | 24.0 | 0.00 | 0.00 | 0.00 | 60 | 1001.1 |
| 20260831073100 | 72 | 130 | 15.0 | 24.0 | 0.00 | 0.00 | 0.00 | 60 | 1001.2 |
| 20260831071529 | 72 | 129 | 14.0 | 24.0 | 0.00 | 0.00 | 0.00 | 60 | 1001.2 |
| 20260831070034 | 73 | 169 | 16.0 | 22.0 | 0.00 | 0.00 | 0.00 | 59 | 1001.2 |
| 20260831064534 | 73 | 144 | 15.0 | 23.0 | 0.00 | 0.00 | 0.00 | 59 | 1001.3 |
| 20260831063023 | 73 | 155 | 13.0 | 24.0 | 0.00 | 0.00 | 0.00 | 59 | 1001.5 |
| 20260831061530 | 74 | 165 | 14.0 | 23.0 | 0.00 | 0.00 | 0.00 | 58 | 1001.6 |
| 20260831060019 | 74 | 188 | 13.0 | 24.0 | 0.00 | 0.00 | 0.00 | 57 | 1001.6 |
| 20260831054516 | 74 | 136 | 13.0 | 24.0 | 0.00 | 0.00 | 0.00 | 56 | 1001.7 |
| 20260831053021 | 75 | 177 | 17.0 | 25.0 | 0.00 | 0.00 | 0.00 | 55 | 1001.6 |
| 20260831051514 | 75 | 135 | 17.0 | 31.0 | 0.00 | 0.00 | 0.00 | 55 | 1001.5 |
| 20260831050028 | 76 | 109 | 17.0 | 26.0 | 0.00 | 0.00 | 0.00 | 54 | 1001.7 |
| 20260831044507 | 76 | 128 | 17.0 | 30.0 | 0.00 | 0.00 | 0.00 | 53 | 1001.7 |
| 20260831043009 | 76 | 147 | 17.0 | 29.0 | 0.00 | 0.00 | 0.00 | 52 | 1001.7 |
| 20260831041506 | 77 | 144 | 19.0 | 30.0 | 0.00 | 0.00 | 0.00 | 51 | 1001.4 |
| 20260831040020 | 77 | 147 | 17.0 | 31.0 | 0.00 | 0.00 | 0.00 | 49 | 1001.4 |
| 20260831034507 | 78 | 143 | 17.0 | 31.0 | 0.00 | 0.00 | 0.00 | 48 | 1001.2 |
| 20260831033005 | 78 | 161 | 17.0 | 30.0 | 0.00 | 0.00 | 0.00 | 47 | 1000.8 |
| 20260831031504 | 79 | 151 | 16.0 | 31.0 | 0.00 | 0.00 | 0.00 | 45 | 1001.0 |
| 20260831030012 | 79 | 138 | 18.0 | 29.0 | 0.00 | 0.00 | 0.00 | 43 | 1000.6 |
| 20260831024504 | 80 | 139 | 16.0 | 28.0 | 0.00 | 0.00 | 0.00 | 41 | 1000.3 |
| 20260831023003 | 81 | 174 | 16.0 | 25.0 | 0.00 | 0.00 | 0.00 | 40 | 1000.0 |
| 20260831021502 | 81 | 148 | 14.0 | 22.0 | 0.00 | 0.00 | 0.00 | 38 | 999.9 |
| 20260831020002 | 82 | 146 | 15.0 | 22.0 | 0.00 | 0.00 | 0.00 | 35 | 999.8 |
| 20260831014501 | 82 | 135 | 14.0 | 21.0 | 0.00 | 0.00 | 0.00 | 36 | 999.7 |
| 20260831013001 | 83 | 145 | 12.0 | 21.0 | 0.00 | 0.00 | 0.00 | 36 | 999.7 |
| 20260831011601 | 83 | 121 | 11.0 | 23.0 | 0.00 | 0.00 | 0.00 | 36 | 999.8 |
| 20260831004559 | 85 | 97 | 9.0 | 16.0 | 0.00 | 0.00 | 0.00 | 34 | 999.8 |
| 20260831003058 | 85 | 126 | 7.0 | 14.0 | 0.00 | 0.00 | 0.00 | 34 | 999.8 |
| 20260831001558 | 86 | 121 | 4.0 | 9.0 | 0.00 | 0.00 | 0.00 | 34 | 999.8 |
| 20260830234601 | 87 | 144 | 4.0 | 11.0 | 0.00 | 0.00 | 0.00 | 34 | 999.8 |